Index of /20260505/WXO-DD/model_gdps/15km/00/077
Name Last modified Size Description
Parent Directory -
20260505T00Z_MSC_GDPS_AirTemp_AGL-120m_LatLon0.15_PT077H.grib2 2026-05-05 03:59 903K
20260505T00Z_MSC_GDPS_AirTemp_AGL-2m_LatLon0.15_PT077H.grib2 2026-05-05 03:59 1.0M
20260505T00Z_MSC_GDPS_AirTemp_AGL-40m_LatLon0.15_PT077H.grib2 2026-05-05 03:59 925K
20260505T00Z_MSC_GDPS_AirTemp_AGL-80m_LatLon0.15_PT077H.grib2 2026-05-05 03:59 913K
20260505T00Z_MSC_GDPS_Albedo_Sfc_LatLon0.15_PT077H.grib2 2026-05-05 03:59 242K
20260505T00Z_MSC_GDPS_ConvectivePrecip-Accum_Sfc_LatLon0.15_PT077H.grib2 2026-05-05 03:59 3.3M
20260505T00Z_MSC_GDPS_DewPointDepression_AGL-2m_LatLon0.15_PT077H.grib2 2026-05-05 03:59 761K
20260505T00Z_MSC_GDPS_DewPoint_AGL-2m_LatLon0.15_PT077H.grib2 2026-05-05 03:59 607K
20260505T00Z_MSC_GDPS_DownwardLongwaveRadiationFlux-Accum_Sfc_LatLon0.15_PT077H.grib2 2026-05-05 03:59 681K
20260505T00Z_MSC_GDPS_DownwardShortwaveRadiationFlux-Accum_Sfc_LatLon0.15_PT077H.grib2 2026-05-05 03:59 887K
20260505T00Z_MSC_GDPS_FreezingRain-Accum1h_Sfc_LatLon0.15_PT077H.grib2 2026-05-05 03:59 40K
20260505T00Z_MSC_GDPS_FreezingRain-Accum_Sfc_LatLon0.15_PT077H.grib2 2026-05-05 03:59 312K
20260505T00Z_MSC_GDPS_IcePellets-Accum1h_Sfc_LatLon0.15_PT077H.grib2 2026-05-05 03:59 11K
20260505T00Z_MSC_GDPS_IcePellets-Accum_Sfc_LatLon0.15_PT077H.grib2 2026-05-05 03:59 94K
20260505T00Z_MSC_GDPS_LatentHeatNetFlux_Sfc_LatLon0.15_PT077H.grib2 2026-05-05 03:59 534K
20260505T00Z_MSC_GDPS_NetLongwaveRadiationFlux-Accum_Sfc_LatLon0.15_PT077H.grib2 2026-05-05 03:59 908K
20260505T00Z_MSC_GDPS_NetShortwaveRadiationFlux-Accum_Sfc_LatLon0.15_PT077H.grib2 2026-05-05 03:59 1.1M
20260505T00Z_MSC_GDPS_O3MixingRatio_Sfc_LatLon0.15_PT077H.grib2 2026-05-05 04:46 1.9M
20260505T00Z_MSC_GDPS_O3_EAtm_LatLon0.15_PT077H.grib2 2026-05-05 04:46 2.4M
20260505T00Z_MSC_GDPS_PlanetaryBoundaryLayerHeight_Sfc_LatLon0.15_PT077H.grib2 2026-05-05 03:59 2.4M
20260505T00Z_MSC_GDPS_Precip-Accum1h_Sfc_LatLon0.15_PT077H.grib2 2026-05-05 03:59 3.2M
20260505T00Z_MSC_GDPS_Precip-Accum_Sfc_LatLon0.15_PT077H.grib2 2026-05-05 03:59 4.9M
20260505T00Z_MSC_GDPS_PrecipRate_Sfc_LatLon0.15_PT077H.grib2 2026-05-05 03:59 2.9M
20260505T00Z_MSC_GDPS_Pressure_MSL_LatLon0.15_PT077H.grib2 2026-05-05 03:59 713K
20260505T00Z_MSC_GDPS_Pressure_Sfc_LatLon0.15_PT077H.grib2 2026-05-05 03:59 1.1M
20260505T00Z_MSC_GDPS_RadiativeTemp_Sfc_LatLon0.15_PT077H.grib2 2026-05-05 03:59 665K
20260505T00Z_MSC_GDPS_Rain-Accum1h_Sfc_LatLon0.15_PT077H.grib2 2026-05-05 03:59 1.4M
20260505T00Z_MSC_GDPS_Rain-Accum_Sfc_LatLon0.15_PT077H.grib2 2026-05-05 03:59 3.8M
20260505T00Z_MSC_GDPS_RelativeHumidity_AGL-2m_LatLon0.15_PT077H.grib2 2026-05-05 03:59 1.0M
20260505T00Z_MSC_GDPS_Runoff-Accum_Sfc_LatLon0.15_PT077H.grib2 2026-05-05 03:59 115K
20260505T00Z_MSC_GDPS_SensibleHeatNetFlux_Sfc_LatLon0.15_PT077H.grib2 2026-05-05 03:59 476K
20260505T00Z_MSC_GDPS_Snow-Accum1h_Sfc_LatLon0.15_PT077H.grib2 2026-05-05 03:59 1.2M
20260505T00Z_MSC_GDPS_Snow-Accum_Sfc_LatLon0.15_PT077H.grib2 2026-05-05 03:59 2.0M
20260505T00Z_MSC_GDPS_SnowDepth_Sfc_LatLon0.15_PT077H.grib2 2026-05-05 03:59 1.7M
20260505T00Z_MSC_GDPS_SoilTemp_DBS-0to10cm_LatLon0.15_PT077H.grib2 2026-05-05 03:59 510K
20260505T00Z_MSC_GDPS_SoilTemp_Sfc_LatLon0.15_PT077H.grib2 2026-05-05 03:59 575K
20260505T00Z_MSC_GDPS_SoilVolumetricWaterContent_DBS-0to10cm_LatLon0.15_PT077H.grib2 2026-05-05 03:59 597K
20260505T00Z_MSC_GDPS_SoilVolumetricWaterContent_DBS-0to1cm_LatLon0.15_PT077H.grib2 2026-05-05 03:59 657K
20260505T00Z_MSC_GDPS_SpecificHumidity_AGL-120m_LatLon0.15_PT077H.grib2 2026-05-05 03:59 1.1M
20260505T00Z_MSC_GDPS_SpecificHumidity_AGL-2m_LatLon0.15_PT077H.grib2 2026-05-05 03:59 1.2M
20260505T00Z_MSC_GDPS_SpecificHumidity_AGL-40m_LatLon0.15_PT077H.grib2 2026-05-05 03:59 1.1M
20260505T00Z_MSC_GDPS_SpecificHumidity_AGL-80m_LatLon0.15_PT077H.grib2 2026-05-05 03:59 1.1M
20260505T00Z_MSC_GDPS_SpecificHumidity_Sfc_LatLon0.15_PT077H.grib2 2026-05-05 03:59 673K
20260505T00Z_MSC_GDPS_TotalCloudCover_Sfc_LatLon0.15_PT077H.grib2 2026-05-05 03:59 821K
20260505T00Z_MSC_GDPS_UVIndex-ClearSky_Sfc_LatLon0.15_PT077H.grib2 2026-05-05 04:46 1.1M
20260505T00Z_MSC_GDPS_UVIndex_Sfc_LatLon0.15_PT077H.grib2 2026-05-05 04:46 1.5M
20260505T00Z_MSC_GDPS_UpwardLongwaveRadiationFlux_NTAtm_LatLon0.15_PT077H.grib2 2026-05-05 03:59 828K
20260505T00Z_MSC_GDPS_WindDir_AGL-10m_LatLon0.15_PT077H.grib2 2026-05-05 03:59 1.3M
20260505T00Z_MSC_GDPS_WindDir_AGL-120m_LatLon0.15_PT077H.grib2 2026-05-05 03:59 1.3M
20260505T00Z_MSC_GDPS_WindDir_AGL-40m_LatLon0.15_PT077H.grib2 2026-05-05 03:59 1.4M
20260505T00Z_MSC_GDPS_WindDir_AGL-80m_LatLon0.15_PT077H.grib2 2026-05-05 03:59 1.4M
20260505T00Z_MSC_GDPS_WindDir_IsbL-0700_LatLon0.15_PT077H.grib2 2026-05-05 03:59 1.6M
20260505T00Z_MSC_GDPS_WindGust-Max_AGL-10m_LatLon0.15_PT077H.grib2 2026-05-05 03:59 2.2M
20260505T00Z_MSC_GDPS_WindGust-Min_AGL-10m_LatLon0.15_PT077H.grib2 2026-05-05 03:59 2.1M
20260505T00Z_MSC_GDPS_WindGust_AGL-10m_LatLon0.15_PT077H.grib2 2026-05-05 03:59 2.1M
20260505T00Z_MSC_GDPS_WindSpeed_AGL-10m_LatLon0.15_PT077H.grib2 2026-05-05 03:59 1.1M
20260505T00Z_MSC_GDPS_WindSpeed_AGL-120m_LatLon0.15_PT077H.grib2 2026-05-05 03:59 1.2M
20260505T00Z_MSC_GDPS_WindSpeed_AGL-40m_LatLon0.15_PT077H.grib2 2026-05-05 03:59 1.2M
20260505T00Z_MSC_GDPS_WindSpeed_AGL-80m_LatLon0.15_PT077H.grib2 2026-05-05 03:59 1.2M
20260505T00Z_MSC_GDPS_WindSpeed_IsbL-0700_LatLon0.15_PT077H.grib2 2026-05-05 03:59 1.5M
20260505T00Z_MSC_GDPS_WindU_AGL-10m_LatLon0.15_PT077H.grib2 2026-05-05 03:59 1.5M
20260505T00Z_MSC_GDPS_WindU_AGL-120m_LatLon0.15_PT077H.grib2 2026-05-05 03:59 958K
20260505T00Z_MSC_GDPS_WindU_AGL-40m_LatLon0.15_PT077H.grib2 2026-05-05 03:59 953K
20260505T00Z_MSC_GDPS_WindU_AGL-80m_LatLon0.15_PT077H.grib2 2026-05-05 03:59 957K
20260505T00Z_MSC_GDPS_WindU_IsbL-0700_LatLon0.15_PT077H.grib2 2026-05-05 03:59 1.2M
20260505T00Z_MSC_GDPS_WindV_AGL-10m_LatLon0.15_PT077H.grib2 2026-05-05 03:59 1.3M
20260505T00Z_MSC_GDPS_WindV_AGL-120m_LatLon0.15_PT077H.grib2 2026-05-05 03:59 959K
20260505T00Z_MSC_GDPS_WindV_AGL-40m_LatLon0.15_PT077H.grib2 2026-05-05 03:59 952K
20260505T00Z_MSC_GDPS_WindV_AGL-80m_LatLon0.15_PT077H.grib2 2026-05-05 03:59 958K
20260505T00Z_MSC_GDPS_WindV_IsbL-0700_LatLon0.15_PT077H.grib2 2026-05-05 03:59 1.2M